Home > Weather > Pirna > Past weeks

Flag for Germany Past Weather in Pirna, Saxony, Germany — Yesterday and Last 2 Weeks

Now
68 °F

Partly sunny.


Feels Like: 68 °F
Forecast: 56 / 73 °F
Wind: 10 mph from South

Location: Dresden-Klotzsche

Current Time: May 30, 2016 at 10:58:21 AM

Latest Report: May 30, 2016 at 10:20 AM


Visibility: N/A

Pressure: 29.65 "Hg

Humidity: 73%

Dew Point: 59 °F

Location of PirnaLocation

Past Weather in Pirna — Graph

°F

Pirna Temperature Yesterday

Maximum temperature yesterday: 79 °F (at 4:50 PM)
Minimum temperature yesterday: 61 °F (at 2:50 AM)
Average temperature yesterday: 69 °F

High & Low Weather Summary for the Past Weeks

 TemperatureHumidityPressure
High82 °F (May 22, 3:50 PM)100% (May 23, 8:50 PM)30.09 "Hg (May 23, 8:50 PM)
Low41 °F (May 15, 9:20 AM)23% (May 22, 3:50 PM)29.59 "Hg (May 30, 4:50 AM)
Average59 °F69%29.92 "Hg
* Reported May 15 9:20 AM — May 30 9:20 AM, Pirna, Weather by CustomWeather, © 2016

Note: Actual official high and low records may vary slightly from our data, if they occured in-between our weather recording intervals... More about our weather records

Advertising

Pirna Weather History for the Previous 24 Hours

Scroll right to see more
 ConditionsComfort  
Time TempWeatherWind HumidityBarometerVisibility
9:20 AM
Mon, May 30
70 °FScattered clouds.10 mph73%29.65 "HgN/A
8:50 AM70 °FScattered clouds.14 mph69%29.65 "HgN/A
8:20 AM68 °FScattered clouds.10 mph73%29.65 "HgN/A
7:50 AM68 °FPassing clouds.10 mph73%29.62 "HgN/A
7:20 AM68 °FSunny.7 mph73%29.62 "Hg10 mi
6:50 AM66 °FSunny.6 mph78%29.62 "Hg10 mi
6:20 AM64 °FSunny.6 mph83%29.62 "Hg10 mi
5:50 AM64 °FPassing clouds.6 mph83%29.62 "HgN/A
5:20 AM63 °FClear.8 mph88%29.59 "Hg10 mi
4:50 AM63 °FClear.8 mph88%29.59 "Hg10 mi
4:20 AM64 °FClear.7 mph83%29.62 "Hg10 mi
3:50 AM64 °FClear.7 mph83%29.62 "Hg10 mi
3:20 AM64 °FClear.6 mph88%29.62 "Hg10 mi
2:50 AM64 °FClear.6 mph88%29.62 "Hg10 mi
2:20 AM63 °FClear.5 mph94%29.62 "Hg10 mi
1:50 AM63 °FClear.6 mph88%29.65 "Hg10 mi
1:20 AM63 °FClear.6 mph94%29.65 "Hg10 mi
12:50 AM64 °FClear.2 mph94%29.65 "Hg10 mi
12:20 AM64 °FClear.5 mph88%29.68 "Hg10 mi
11:50 PM
Sun, May 29
64 °FClear.6 mph88%29.68 "Hg10 mi
11:20 PM66 °FClear.5 mph83%29.68 "Hg10 mi
10:50 PM68 °FPassing clouds.8 mph83%29.68 "HgN/A
10:20 PM68 °FClear.10 mph83%29.65 "Hg10 mi
9:50 PM68 °FSunny.9 mph83%29.68 "Hg10 mi
9:20 PM68 °FSunny.8 mph83%29.68 "Hg10 mi
8:50 PM70 °FScattered clouds.8 mph73%29.68 "HgN/A
8:20 PM72 °FScattered clouds.9 mph73%29.68 "HgN/A
7:50 PM72 °FScattered clouds.9 mph73%29.68 "HgN/A
7:20 PM75 °FScattered clouds.10 mph65%29.68 "HgN/A
6:50 PM77 °FScattered clouds.10 mph57%29.68 "HgN/A
6:20 PM79 °FScattered clouds.9 mph51%29.68 "HgN/A
5:50 PM79 °FScattered clouds.9 mph51%29.68 "HgN/A
5:20 PM79 °FPartly sunny.8 mph51%29.68 "HgN/A
4:50 PM79 °FBroken clouds.7 mph51%29.68 "HgN/A
4:20 PM77 °FBroken clouds.6 mph57%29.71 "HgN/A
3:50 PM77 °FBroken clouds.8 mph54%29.71 "HgN/A
3:20 PM77 °FBroken clouds.9 mph57%29.71 "HgN/A
2:50 PM77 °FBroken clouds.8 mph57%29.71 "HgN/A
2:20 PM77 °FScattered clouds.6 mph54%29.74 "HgN/A
1:50 PM77 °FScattered clouds.7 mph57%29.74 "HgN/A
1:20 PM75 °FScattered clouds.9 mph57%29.74 "HgN/A
12:50 PM75 °FPassing clouds.9 mph57%29.74 "HgN/A
12:20 PM73 °FPassing clouds.9 mph65%29.74 "HgN/A
11:50 AM73 °FPassing clouds.12 mph65%29.77 "HgN/A
11:20 AM73 °FPassing clouds.14 mph69%29.77 "HgN/A
10:50 AM72 °FPassing clouds.12 mph65%29.77 "HgN/A
10:20 AM72 °FScattered clouds.12 mph65%29.77 "HgN/A
Weather by CustomWeather, © 2016

See weather overviewHow to use our weather pages